Theta_e
307 307 307 307 308 307 304 296 287 298 303 287 287 284 292 297 297 300 298 298 296 294 295 295 295 296 299 304 304 299 300 296 293 300 306 308 306 303 301 293 292 293 293 292
307 306 306 307 307 306 300 292 290 298 300 283 283 287 290 295 296 297 296 295 297 298 294 292 296 299 304 305 303 300 301 294 291 293 300 304 299 303 304 302 299 293 290 292
305 306 306 306 306 306 301 294 287 290 296 293 286 284 285 288 295 295 297 296 297 294 292 295 294 297 304 306 305 311 307 295 296 292 295 301 298 301 303 301 294 294 295 299
305 306 306 306 305 306 301 295 290 290 286 288 289 287 287 285 286 294 296 293 294 293 290 293 293 296 299 304 310 305 302 295 297 299 301 303 301 301 301 300 300 296 298 300
305 305 306 306 305 305 298 288 291 290 291 291 289 290 287 288 290 289 290 290 293 294 291 293 292 297 298 299 304 305 304 294 300 300 303 302 300 302 302 302 302 301 301 300
306 306 306 306 305 304 294 294 298 294 289 289 289 288 289 290 292 293 294 293 293 293 296 299 299 299 301 304 303 304 300 298 294 293 301 299 294 300 301 303 303 302 297 302
306 305 305 305 305 303 296 297 298 291 284 289 289 292 292 292 294 291 295 297 294 298 303 303 300 309 309 307 304 308 299 295 294 293 297 287 299 306 306 303 304 304 304 305
305 305 304 305 306 305 300 300 297 294 285 289 290 291 291 294 293 292 295 298 301 301 300 295 294 300 300 304 307 303 303 298 293 291 287 295 299 304 303 301 300 307 305 306
304 305 305 305 306 305 300 296 302 296 289 286 293 290 292 289 287 290 294 299 301 300 296 293 288 289 295 295 300 306 303 301 295 288 286 285 296 304 310 307 295 306 307 306
305 305 305 305 306 306 301 300 303 297 290 293 293 288 288 292 291 290 292 295 296 299 293 285 287 290 297 293 295 296 295 295 291 287 284 293 302 306 309 294 296 310 309 308
305 305 305 305 305 306 302 297 303 299 292 293 295 296 292 292 292 290 291 293 295 295 291 291 292 293 296 295 300 297 295 290 290 289 286 288 308 305 299 303 306 310 311 311
305 305 305 305 306 305 304 297 303 305 295 290 295 296 297 296 295 296 293 292 295 300 297 296 295 292 295 294 291 302 295 297 293 294 294 303 308 307 309 308 307 311 310 313
304 303 305 306 306 305 303 300 301 299 291 289 288 290 296 298 301 300 290 298 299 299 302 299 299 288 295 292 293 299 301 303 298 298 301 302 306 307 310 312 311 313 313 313
306 306 307 307 306 305 304 299 301 297 293 286 287 297 293 298 303 301 301 299 301 302 302 298 297 293 296 293 296 298 301 303 299 298 301 304 305 307 311 311 313 314 316 316
306 307 306 306 306 305 301 300 300 301 293 287 287 292 296 299 302 302 303 302 301 299 298 296 292 300 298 297 296 294 299 300 298 296 302 302 305 309 312 313 313 314 314 315
305 306 306 306 305 303 299 291 296 302 299 289 283 291 296 298 300 300 300 302 302 301 299 297 300 304 302 296 295 302 304 306 306 304 307 307 311 313 314 313 314 315 316 315
304 305 305 305 304 301 295 292 299 301 299 292 285 289 293 295 299 299 299 302 300 301 300 299 300 300 302 298 294 300 306 306 308 309 307 305 310 308 313 314 313 314 317 318
303 303 303 303 303 300 293 301 304 301 298 295 286 287 290 296 295 292 299 295 297 297 298 298 296 299 298 295 301 303 306 307 308 309 307 307 311 311 311 310 311 310 313 316
304 304 303 298 295 291 293 306 305 302 297 289 289 286 285 295 295 295 296 295 290 297 295 295 294 292 293 299 301 302 302 302 303 308 308 308 308 311 311 309 307 308 311 314
304 300 296 289 293 304 303 296 291 290 290 293 289 293 289 292 294 293 292 295 291 288 293 299 290 289 295 299 303 303 303 305 305 304 303 303 303 307 308 307 310 312 312 312
296 294 292 295 303 295 293 285 283 285 283 289 288 290 287 296 291 290 294 290 291 284 291 292 289 289 294 299 303 304 304 306 307 307 306 304 303 307 307 308 309 310 311 311
294 294 296 296 293 287 284 282 286 283 281 288 288 291 292 293 297 291 292 289 291 285 294 289 287 295 299 300 303 304 303 304 304 306 306 306 305 306 305 305 306 307 307 307
297 296 291 287 284 277 280 280 282 282 288 289 290 289 293 294 295 290 289 287 287 295 284 286 292 297 299 299 303 303 304 304 304 303 304 306 306 306 305 304 306 307 306 307
288 285 281 279 282 285 286 285 287 290 290 290 289 287 290 293 289 290 287 291 293 286 282 284 293 297 300 300 301 304 301 302 303 304 303 303 304 304 306 306 306 307 307 308
289 287 283 285 290 292 291 292 291 293 293 290 288 289 289 287 288 290 289 286 283 287 288 293 294 298 300 300 300 300 301 300 301 303 307 306 306 305 305 305 304 306 308 308
292 289 286 290 286 286 289 290 291 294 294 293 291 287 284 284 287 285 284 284 285 289 294 295 297 299 300 301 302 303 305 305 305 308 307 306 305 304 306 309 306 306 308 308
289 288 291 289 289 290 288 289 290 295 291 285 289 282 283 288 284 284 289 288 290 294 296 297 300 297 300 301 303 303 305 305 306 307 307 306 305 302 300 299 301 302 302 302
Wind_Speed
23 23 20 20 18 18 17 5 5 4 15 7 5 19 12 5 19 10 5 3 6 6 4 4 7 8 15 21 23 13 12 9 12 4 5 5 2 8 8 6 4 2 4 9
23 22 20 19 20 20 5 6 3 3 9 9 9 17 22 14 9 7 3 6 5 2 5 3 8 9 7 10 26 23 11 6 4 6 6 4 3 5 7 10 3 7 0 7
18 22 19 17 18 20 7 5 6 3 8 9 12 13 19 11 16 18 14 10 6 5 6 5 7 5 5 7 12 20 20 9 20 16 11 7 4 10 15 9 6 5 7 9
17 21 19 18 16 18 6 6 5 6 9 13 20 7 4 19 10 16 8 6 19 11 6 2 12 8 12 16 8 3 10 13 8 18 14 16 9 14 16 19 17 10 8 7
20 20 19 19 18 17 7 5 4 1 2 17 19 15 15 16 9 18 14 20 20 7 11 16 6 7 2 9 3 18 4 6 7 3 11 10 5 8 14 20 18 14 9 10
20 21 19 18 19 15 3 2 4 3 4 2 8 16 23 11 14 13 15 20 11 14 26 11 12 12 15 15 9 7 8 8 3 6 14 10 2 10 14 18 11 16 12 13
15 16 17 17 18 17 4 3 2 2 4 6 6 3 10 16 10 16 16 9 9 10 7 9 8 6 2 3 5 13 6 7 6 6 8 8 5 8 14 14 5 7 4 9
11 13 12 16 19 21 3 3 0 1 2 3 4 6 4 5 6 3 6 14 16 3 4 3 5 3 2 4 4 5 1 6 6 9 3 1 3 7 10 10 12 16 12 10
8 10 14 16 18 21 4 2 3 1 0 1 4 3 3 1 4 6 4 9 5 5 2 4 7 7 5 6 5 9 6 8 7 4 8 10 6 5 7 7 10 6 10 8
6 7 12 14 17 20 5 2 3 3 1 3 3 2 2 4 4 2 5 5 4 8 4 1 4 7 19 7 12 6 4 4 6 3 3 5 4 8 7 11 6 8 10 7
4 8 13 13 14 17 5 2 4 1 3 3 1 1 2 3 1 1 4 2 3 2 3 5 6 5 9 6 7 9 7 6 4 4 4 5 9 4 12 11 4 7 5 8
5 6 8 13 13 16 9 2 1 4 3 4 3 4 6 6 4 1 2 2 3 2 2 3 4 3 5 9 5 4 5 8 9 9 8 8 17 9 10 8 7 7 6 6
8 2 10 12 17 18 5 3 1 3 2 5 2 7 10 6 8 5 4 2 5 4 1 3 4 7 4 6 5 9 4 6 6 5 7 10 17 5 6 6 7 6 3 2
10 12 16 14 19 17 7 3 1 4 2 1 7 2 3 4 11 7 4 3 2 6 3 3 3 6 3 5 7 6 7 8 8 6 3 5 3 3 5 8 6 4 7 7
14 13 11 14 16 10 6 2 2 3 2 2 7 10 5 7 15 11 6 6 2 5 5 4 3 6 3 1 3 2 1 10 8 7 5 5 4 1 4 11 10 10 7 5
14 13 12 13 13 10 3 1 2 2 3 1 4 4 4 4 7 8 5 1 3 5 2 3 5 8 4 4 4 5 2 4 6 6 4 8 10 2 6 8 4 8 6 6
11 11 9 7 4 3 1 1 0 3 3 3 4 3 4 4 4 3 2 1 2 1 2 4 2 6 3 3 5 5 5 5 8 8 7 7 3 6 7 9 7 7 5 1
6 7 6 3 1 6 3 2 7 2 2 2 2 3 3 4 1 2 2 3 1 1 1 2 0 8 3 5 3 4 5 10 8 5 8 6 5 3 4 3 3 8 9 5
8 6 5 2 1 1 3 5 4 2 2 3 2 3 1 4 3 2 2 3 3 1 2 2 3 4 6 1 4 7 4 6 7 6 7 5 6 4 4 4 2 3 7 10
7 3 2 3 3 6 6 3 2 2 3 2 4 3 1 2 3 0 3 1 3 1 3 3 3 1 8 12 3 5 5 6 8 10 6 3 3 3 5 3 3 4 0 3
3 3 2 4 6 3 2 1 2 2 2 3 3 2 2 2 1 1 0 2 1 1 2 2 2 3 2 17 11 5 4 7 7 8 7 4 3 5 8 6 3 5 4 3
4 4 5 3 2 2 2 2 2 2 4 3 2 3 2 2 3 1 2 1 1 3 4 2 2 1 2 10 14 8 6 5 6 7 8 7 6 8 7 7 3 2 3 4
1 1 2 3 3 5 2 4 4 4 4 3 4 1 2 3 3 2 1 1 2 2 4 2 2 4 7 7 11 6 6 5 2 2 3 3 5 8 8 6 3 4 0 0
1 2 6 2 4 3 3 1 2 4 4 7 6 1 3 2 3 3 1 2 2 2 2 2 3 7 11 12 5 6 2 4 4 5 4 1 4 2 3 5 4 2 1 5
3 4 4 2 3 5 4 4 2 4 4 2 3 2 2 2 3 1 2 0 1 3 3 2 3 5 7 7 7 5 5 7 7 4 9 8 4 4 2 3 3 1 4 4
3 1 3 3 3 5 4 4 4 4 5 2 3 3 4 3 1 2 3 3 5 3 1 3 4 4 7 9 7 10 10 10 7 10 12 12 13 9 3 3 6 6 6 5
5 3 4 4 3 2 3 2 4 4 4 2 2 4 2 3 4 6 6 3 4 3 2 3 7 6 6 8 6 11 10 9 9 7 9 9 8 9 10 9 7 8 9 9
Wind_Direction
255 246 237 227 219 195 162 155 197 257 146 161 198 222 197 284 216 256 271 301 218 234 226 274 216 221 217 211 211 193 200 177 227 214 286 247 128 156 122 115 302 305 206 266
257 247 232 228 224 183 147 169 214 229 179 193 215 233 225 246 247 221 246 242 203 156 196 237 209 243 253 247 208 205 182 205 128 354 342 355 169 133 88 99 105 236 216 264
257 246 223 214 225 190 180 171 178 274 206 239 210 219 227 222 240 263 265 285 313 294 271 212 271 289 280 280 205 198 182 170 202 207 198 147 188 166 171 165 180 225 238 274
250 238 218 206 195 200 208 195 203 174 181 217 233 216 251 213 233 220 233 262 237 243 299 336 241 259 283 286 229 201 211 200 190 213 176 183 188 189 193 205 218 202 236 238
237 234 215 206 184 200 214 170 201 261 227 208 218 227 238 241 237 224 238 236 252 312 256 234 312 335 259 246 296 182 206 211 114 62 149 149 148 212 214 215 220 230 235 249
238 216 206 197 185 174 118 298 274 59 239 141 184 218 236 242 246 272 254 246 262 230 248 270 260 260 273 257 217 189 163 144 96 151 140 114 236 195 212 229 222 213 223 231
213 191 193 193 183 173 146 171 315 136 270 167 241 203 224 236 256 238 263 280 247 284 314 315 286 192 150 188 37 113 211 118 117 150 130 211 187 163 198 223 218 208 254 252
175 182 175 194 184 175 139 122 213 157 260 156 253 267 290 9 357 315 280 271 266 333 351 293 211 227 124 336 34 346 21 122 104 143 207 51 172 165 155 164 244 202 209 246
182 183 187 187 182 179 108 142 134 326 50 242 3 14 12 335 330 322 251 285 243 72 162 194 224 152 193 210 109 351 49 65 106 141 159 206 188 165 124 103 255 196 187 230
190 184 176 171 179 170 132 132 138 147 211 278 27 90 166 169 170 213 298 337 288 151 179 151 236 176 200 208 162 166 66 50 123 103 105 279 261 140 126 175 227 197 169 178
191 161 165 162 164 172 144 157 97 271 171 284 359 44 122 339 117 176 311 339 277 270 152 187 238 173 186 145 161 160 142 133 148 95 104 228 162 115 169 207 178 170 170 152
89 145 175 174 167 194 161 120 298 228 91 236 234 234 231 202 213 101 329 300 232 48 223 313 279 222 149 145 190 203 166 173 159 165 200 217 190 190 217 178 166 186 186 198
72 6 279 176 164 149 126 104 34 62 53 310 7 246 236 214 175 176 131 305 6 340 352 285 270 263 132 150 203 153 236 130 137 119 212 211 198 200 187 165 197 170 182 135
57 76 97 125 119 120 105 87 299 83 86 285 277 332 283 181 155 167 172 191 51 266 211 258 267 285 210 177 160 134 175 149 157 206 232 98 88 148 173 218 224 307 122 183
47 67 110 134 144 94 75 69 47 84 80 307 287 309 260 181 170 175 188 197 132 251 173 235 277 269 337 22 100 69 144 170 177 202 178 130 153 184 171 192 208 211 172 174
43 64 78 102 116 116 86 328 304 157 143 303 291 292 302 70 153 163 215 208 121 294 163 161 264 261 318 78 75 300 6 100 140 161 170 114 123 46 81 117 180 237 210 181
55 64 73 110 93 49 3 244 166 121 143 247 294 297 307 305 178 179 207 203 129 290 308 177 248 291 291 138 132 229 134 103 93 114 114 73 66 133 152 150 147 171 180 214
53 56 61 70 358 314 342 296 215 139 238 275 271 287 314 343 65 232 198 124 246 45 13 69 283 296 268 65 300 237 98 86 57 69 77 133 148 163 77 55 27 108 117 116
15 357 325 338 11 312 250 290 147 204 224 310 275 284 354 348 241 205 166 184 65 59 288 210 191 295 53 177 209 90 76 104 130 116 95 101 87 94 21 306 248 175 135 150
314 336 314 325 246 264 339 355 63 7 269 241 256 142 282 213 212 67 49 241 155 137 230 216 122 303 267 317 295 120 114 120 122 100 78 25 17 210 335 42 27 98 1 141
13 337 324 259 294 25 289 296 110 247 291 241 243 133 144 271 276 205 22 221 189 143 251 225 139 87 352 297 272 195 141 108 83 98 131 132 85 114 112 104 134 108 153 136
259 280 288 293 336 343 25 233 283 205 249 261 172 198 104 256 241 93 332 15 300 176 141 85 59 21 170 212 225 178 131 99 122 142 136 117 102 110 96 109 161 159 139 81
6 264 278 51 284 13 29 343 334 327 327 315 324 254 66 332 16 60 2 78 255 17 41 138 59 303 326 323 184 136 178 194 241 293 298 316 168 138 139 149 194 160 269 182
21 15 331 80 322 15 317 318 274 267 273 293 308 343 129 200 47 266 18 307 62 18 52 65 326 341 335 357 72 91 70 348 275 263 260 245 216 165 177 134 146 87 52 222
26 7 355 308 312 266 254 267 308 281 266 291 344 4 128 154 160 195 298 44 65 42 43 350 322 310 312 7 8 72 58 51 44 34 46 24 62 78 278 284 269 216 263 276
24 143 320 278 332 320 352 323 307 297 323 328 27 354 22 341 68 106 263 76 26 56 60 282 289 1 11 21 14 49 47 53 52 60 58 43 29 4 314 296 255 249 244 220
352 315 277 249 238 223 261 277 285 310 4 5 20 36 280 312 27 22 12 74 206 181 217 21 6 349 350 356 19 50 59 56 51 54 64 75 57 38 32 18 345 76 71 74